Regional Weather Roundup
Issued by NWS

Home | Current Version | Previous Version | Text Only | Print | Product List | Glossary Off
Versions: 1 2 3 4 5 6 7 8 9 10 11 12 13 14 15 16 17 18 19 20 21 22 23 24 25 26 27

000
ASUS45 KBOU 260307
RWRCO

WEATHER ROUNDUP FOR COLORADO
NATIONAL WEATHER SERVICE DENVER/BOULDER CO
900 PM MDT THU AUG 25 2016

NOTE: "FAIR" INDICATES FEW OR NO CLOUDS BELOW 12000 FEET WITH NO
SIGNIFICANT WEATHER AND/OR OBSTRUCTIONS TO VISIBILITY.

COZ001>005-013-030-031-260400-
...NORTHWEST COLORADO...

CITY           SKY/WX    TMP DP  RH WIND       PRES   REMARKS
CRAIG          CLOUDY    58  43  57 SE6       30.22S
HAYDEN         FAIR      59  34  38 CALM      30.25R
MEEKER         FAIR      56  42  59 SE9       30.24R
MOUNT WERNER   NOT AVBL
STEAMBOAT SPGS CLOUDY    58  35  41 SW9G17    30.26R
WALDEN         FAIR      54  32  43 S7        30.31R
$$

COZ006>008-011-260400-
...WEST CENTRAL VALLEYS...

CITY           SKY/WX    TMP DP  RH WIND       PRES   REMARKS
GRAND JUNCTION FAIR      60  48  64 E12       30.21R
MONTROSE       LGT RAIN  55  50  83 S15       30.29S
EAGLE          CLOUDY    52  45  76 SW15      30.37R
RIFLE          LGT RAIN  53  52  96 E12       30.29F
DELTA          FAIR      59  53  81 N7        30.27R
NUCLA          CLOUDY    55  50  82 SE8       30.33R
$$

COZ017>023-064>068-260400-
...SOUTHWEST COLORADO...

CITY           SKY/WX    TMP DP  RH WIND       PRES   REMARKS
DURANGO        CLOUDY    55 N/A N/A NW15      30.27R
CORTEZ         HVY RAIN  54  53  97 E8        30.33S FOG
PAGOSA SPRINGS MOCLDY    55  45  68 NE5       30.30R
TELLURIDE      RAIN      47  45  93 W6        30.47R
WOLF CREEK PAS FAIR      39  34  81 SW10      30.58R
$$

COZ009-010-012-014-032>034-037-058>063-260400-
...CENTRAL COLORADO...

CITY           SKY/WX    TMP DP  RH WIND       PRES   REMARKS
ASPEN          RAIN      48  46  93 SE6       30.40R
BUENA VISTA    MOCLDY    51  42  70 NE3       30.37R
COPPER MTN     SNOW      36  32  87 MISG      30.56R VSB 1/4
BERTHOUD PASS  HAZE      32  19  59 S5        30.57R VSB<1/4 WCI  27
COTTONWOOD PAS LGT RAIN  50  39  66 NW3       30.45R
GUNNISON       MOCLDY    52  37  58 N5        30.40R
KREMMLING      CLOUDY    54  37  54 SW5       30.33R
LEADVILLE      LGT RAIN  40  37  89 N7        30.47R FOG
MONARCH PASS   LGT RAIN  37  36  93 SW13      30.65R
SALIDA         CLOUDY    54  45  70 SE6       30.40R
SUNLIGHT       RAIN      37  37 100 CALM      30.53S
WILKERSON PASS FAIR      37  34  87 S8        30.54R
$$

COZ069>075-260400-
...SAN LUIS VALLEY/SANGRE DE CRISTO MOUNTAINS...

CITY           SKY/WX    TMP DP  RH WIND       PRES   REMARKS
ALAMOSA        FAIR      49  43  80 E3        30.30R
LA VETA PASS   FOG       43  41  93 E8        30.47R VSB 1/2
SAGUACHE       FAIR      48  45  87 N8        30.34R
$$

COZ035-036-038>040-260400-
...NORTHERN COLORADO FRONT RANGE...

CITY           SKY/WX    TMP DP  RH WIND       PRES   REMARKS
DENVER INTL AP MOCLDY    56  50  80 S3        30.24R
DMNS CITY PARK   N/A     56  50  82 E7        30.23S
AURORA         MOCLDY    54  51  87 S5        30.25R
FRONT RANGE AP MOCLDY    55  54  94 S5        30.25R
ERIE MUNI ARPT FAIR      55  50  81 CALM      30.22S
BOULDER MUN AP FAIR      59  50  72 W5        30.22S
CENTENNIAL     FAIR      55  47  74 S6        30.25R
BROOMFIELD     MOCLDY    57  50  77 CALM      30.25S
FORT COLLINS   FAIR      57  48  72 SE5       30.22R
LONGMONT       FAIR      59  52  78 CALM      30.24R
$$

COZ041-046-047-076>085-087-088-260400-
...PIKES PEAK/PALMER DIVIDE AND SOUTHERN FOOTHILLS...

CITY           SKY/WX    TMP DP  RH WIND       PRES   REMARKS
COLO. SPRINGS  FAIR      55  46  71 NW6       30.27F
A. F. ACADEMY  FAIR      50  46  86 N7        30.28S
SCHRIEVER AFB  NOT AVBL
ELLICOTT       FAIR     N/A N/A N/A NE7       30.27R
FALCON         FAIR      52  44  75 CALM      30.30S
FORT CARSON    MOCLDY    53  46  75 NW6       30.24S
LIMON          CLOUDY    56  49  77 NE3       30.24S
MONUMENT HILL  FAIR      46  45  93 SW6       30.31F
TRINIDAD       CLOUDY    59  49  69 N9        30.28R
$$

COZ042>045-048>051-090-091-260400-
...NORTHEAST COLORADO...

CITY           SKY/WX    TMP DP  RH WIND       PRES   REMARKS
GREELEY ARPT   FAIR      57  48  72 SW5       30.22S
AKRON          MOCLDY    61  48  62 SW5       30.22R
BURLINGTON     FAIR      61  52  72 SE10      30.21R
WRAY           FAIR      63  45  51 E7        30.19R
STERLING       FAIR      63  48  59 SE3       30.18R
HOLYOKE        FAIR      61  48  63 SE7       30.21R
FORT MORGAN    FAIR      56  49  78 SE5       30.19S
$$

COZ086-089-092>099-260400-
...SOUTHEAST COLORADO...

CITY           SKY/WX    TMP DP  RH WIND       PRES   REMARKS
PUEBLO         FAIR      61  55  81 S6        30.21R
LA JUNTA       FAIR      67  55  65 E14       30.20R
LAMAR          FAIR      64  56  75 SE7       30.17R
SPRINGFIELD      N/A     60  58  92 E9        30.21R
$$




USA.gov is the U.S. government's official web portal to all federal, state and local government web resources and services.